Simultaneous Nadir Overpasses (SNOs) Predictions

Prediction of SNOs between METOP-C and LANDSAT-8 Satellite Orbit:

Table of predicted SNOs for the next 14.0 days since TLE Epoch: 11/27/2021
Index Date (METOP-C) Time (METOP-C) Lat,Lon (METOP-C) SZA (METOP-C ) Date (LANDSAT-8) Time (LANDSAT-8) Lat,Lon (LANDSAT-8) SZA (LANDSAT-8 ) Distance(km) Time Diff (sec)
1 11/29/2021 03:12:01 81.08, 171.10 104.73 11/29/2021 03:12:14 81.08, 171.22 104.75 2.12 13
2 11/29/2021 04:02:40 -81.10, -20.94 75.19 11/29/2021 04:01:40 -81.10, -20.82 75.20 2.06 60
3 12/01/2021 22:46:23 81.09,-122.11 105.20 12/01/2021 22:46:29 81.09,-122.18 105.19 1.37 6
4 12/01/2021 23:37:02 -81.12, 45.82 74.73 12/01/2021 23:35:55 -81.11, 45.81 74.76 0.33 67
5 12/04/2021 17:30:06 -81.07, 136.19 74.55 12/04/2021 17:31:18 -81.07, 136.35 74.50 2.99 72
6 12/04/2021 18:20:45 81.09, -55.70 105.56 12/04/2021 18:20:43 81.10, -55.63 105.57 1.40 2
7 12/04/2021 19:11:09 -81.26, 117.93 73.66 12/04/2021 19:09:55 -81.42, 117.65 73.62 17.74 74
8 12/07/2021 13:04:28 -81.08,-157.08 74.21 12/07/2021 13:05:33 -81.08,-157.11 74.18 0.60 65
9 12/07/2021 13:55:07 81.11, 11.05 105.90 12/07/2021 13:54:58 81.10, 10.88 105.88 2.96 9
10 12/10/2021 08:38:52 -81.06, -91.12 74.02 12/10/2021 08:39:49 -81.06, -90.98 73.98 2.43 57



Historial Predications of SNOs between METOP-C and LANDSAT-8
